Location: Estes P
(40.3770°N, 105.5210°W)
Time: 23:23:25
(UTC-07:00)

Tiangong 1 - Visible Passes

Search period start: 16 December 2017 00:00
Search period end: 26 December 2017 00:00
Orbit: 274 x 301 km, 42.8° (Epoch: 16 December)

Date Brightness Start Highest point End Pass type
(mag) Time Alt. Az. Time Alt. Az. Time Alt. Az.
17 Dec 3.8 06:35:24 10° S 06:36:36 13° SE 06:37:48 10° ESE visible
18 Dec 3.0 06:38:17 10° SSW 06:40:21 23° SSE 06:42:27 10° E visible
19 Dec 1.7 06:41:42 10° SW 06:44:05 42° SSE 06:46:31 10° E visible
20 Dec 3.8 05:13:50 13° SE 05:13:50 13° SE 05:14:47 10° ESE visible
20 Dec 0.6 06:45:17 10° WSW 06:47:47 78° SSE 06:50:18 10° ENE visible
21 Dec 3.4 05:17:56 19° ESE 05:17:56 19° ESE 05:19:06 10° E visible
21 Dec 0.5 06:48:56 10° W 06:51:25 66° NNW 06:53:56 10° ENE visible
22 Dec 3.2 05:21:43 22° E 05:21:43 22° E 05:22:50 10° E visible
23 Dec 3.0 05:25:15 22° ENE 05:25:15 22° ENE 05:26:19 10° ENE visible
24 Dec 2.9 05:28:34 22° ENE 05:28:34 22° ENE 05:29:38 10° ENE visible
25 Dec 2.8 05:31:43 22° ENE 05:31:43 22° ENE 05:32:51 10° ENE visible
